owner,sensor,date,latitude,longitude,vertical_datum,sea_water_temperature,qcFlag
BP,ioos:station:wmo:42880:2,2022-07-01T00:07:00Z,0.0000,0.0000,9.3,30.4,11111222
BP,ioos:station:wmo:42880:2,2022-07-01T00:17:00Z,0.0000,0.0000,9.2,30.4,11111222
BP,ioos:station:wmo:42880:2,2022-07-01T00:27:00Z,0.0000,0.0000,9.2,30.4,11111222
BP,ioos:station:wmo:42880:2,2022-07-01T00:37:00Z,0.0000,0.0000,9.3,30.4,11111222
BP,ioos:station:wmo:42880:2,2022-07-01T00:47:00Z,0.0000,0.0000,9.2,30.4,11111222
BP,ioos:station:wmo:42880:2,2022-07-01T00:57:00Z,0.0000,0.0000,9.3,30.4,11111222
BP,ioos:station:wmo:42880:2,2022-07-01T01:07:00Z,0.0000,0.0000,9.3,30.3,11111222
BP,ioos:station:wmo:42880:2,2022-07-01T01:17:00Z,0.0000,0.0000,9.3,30.3,11111222
BP,ioos:station:wmo:42880:2,2022-07-01T01:27:00Z,0.0000,0.0000,9.3,30.4,11111222
BP,ioos:station:wmo:42880:2,2022-07-01T01:37:00Z,0.0000,0.0000,9.3,30.4,11111222
BP,ioos:station:wmo:42880:2,2022-07-01T01:47:00Z,0.0000,0.0000,9.3,30.4,11111222
BP,ioos:station:wmo:42880:2,2022-07-01T01:57:00Z,0.0000,0.0000,9.3,30.4,11111222
BP,ioos:station:wmo:42880:2,2022-07-01T02:07:00Z,0.0000,0.0000,9.3,30.4,11111222
BP,ioos:station:wmo:42880:2,2022-07-01T02:17:00Z,0.0000,0.0000,9.3,30.4,11111222
BP,ioos:station:wmo:42880:2,2022-07-01T02:27:00Z,0.0000,0.0000,9.3,30.4,11111222
BP,ioos:station:wmo:42880:2,2022-07-01T02:37:00Z,0.0000,0.0000,9.4,30.4,11111222
BP,ioos:station:wmo:42880:2,2022-07-01T02:47:00Z,0.0000,0.0000,9.3,30.3,11111222
BP,ioos:station:wmo:42880:2,2022-07-01T02:57:00Z,0.0000,0.0000,9.3,30.4,11111222
BP,ioos:station:wmo:42880:2,2022-07-01T03:07:00Z,0.0000,0.0000,9.2,30.4,11111222
BP,ioos:station:wmo:42880:2,2022-07-01T03:17:00Z,0.0000,0.0000,9.3,30.2,11111222
BP,ioos:station:wmo:42880:2,2022-07-01T03:27:00Z,0.0000,0.0000,9.3,30.2,11111222
BP,ioos:station:wmo:42880:2,2022-07-01T03:37:00Z,0.0000,0.0000,9.3,30.2,11111222
BP,ioos:station:wmo:42880:2,2022-07-01T03:47:00Z,0.0000,0.0000,9.3,30.0,11111222
BP,ioos:station:wmo:42880:2,2022-07-01T03:57:00Z,0.0000,0.0000,9.3,30.3,11111222
BP,ioos:station:wmo:42880:2,2022-07-01T04:07:00Z,0.0000,0.0000,9.3,30.3,11111222
BP,ioos:station:wmo:42880:2,2022-07-01T04:17:00Z,0.0000,0.0000,9.3,30.3,11111222
BP,ioos:station:wmo:42880:2,2022-07-01T04:27:00Z,0.0000,0.0000,9.3,30.3,11111222
BP,ioos:station:wmo:42880:2,2022-07-01T04:37:00Z,0.0000,0.0000,9.3,30.3,11111222
BP,ioos:station:wmo:42880:2,2022-07-01T04:47:00Z,0.0000,0.0000,9.4,30.3,11111222
BP,ioos:station:wmo:42880:2,2022-07-01T04:57:00Z,0.0000,0.0000,9.4,30.3,11111222
BP,ioos:station:wmo:42880:2,2022-07-01T05:07:00Z,0.0000,0.0000,9.4,30.3,11111222
BP,ioos:station:wmo:42880:2,2022-07-01T05:17:00Z,0.0000,0.0000,9.4,30.3,11111222
BP,ioos:station:wmo:42880:2,2022-07-01T05:27:00Z,0.0000,0.0000,9.3,30.2,11111222
BP,ioos:station:wmo:42880:2,2022-07-01T05:37:00Z,0.0000,0.0000,9.3,30.2,11111222
BP,ioos:station:wmo:42880:2,2022-07-01T05:47:00Z,0.0000,0.0000,9.3,30.2,11111222
BP,ioos:station:wmo:42880:2,2022-07-01T05:57:00Z,0.0000,0.0000,9.3,30.2,11111222
BP,ioos:station:wmo:42880:2,2022-07-01T06:07:00Z,0.0000,0.0000,9.3,30.1,11111222
BP,ioos:station:wmo:42880:2,2022-07-01T06:17:00Z,0.0000,0.0000,9.3,30.1,11111222
BP,ioos:station:wmo:42880:2,2022-07-01T06:27:00Z,0.0000,0.0000,9.3,30.1,11111222
BP,ioos:station:wmo:42880:2,2022-07-01T06:37:00Z,0.0000,0.0000,9.3,30.0,11111222
BP,ioos:station:wmo:42880:2,2022-07-01T06:47:00Z,0.0000,0.0000,9.3,30.0,11111222
BP,ioos:station:wmo:42880:2,2022-07-01T06:57:00Z,0.0000,0.0000,9.3,29.9,11111222
BP,ioos:station:wmo:42880:2,2022-07-01T07:07:00Z,0.0000,0.0000,9.3,29.9,11111222
BP,ioos:station:wmo:42880:2,2022-07-01T07:17:00Z,0.0000,0.0000,9.4,30.0,11111222
BP,ioos:station:wmo:42880:2,2022-07-01T07:27:00Z,0.0000,0.0000,9.4,30.0,11111222
BP,ioos:station:wmo:42880:2,2022-07-01T07:37:00Z,0.0000,0.0000,9.4,29.9,11111222
BP,ioos:station:wmo:42880:2,2022-07-01T07:47:00Z,0.0000,0.0000,9.4,30.0,11111222
BP,ioos:station:wmo:42880:2,2022-07-01T07:57:00Z,0.0000,0.0000,9.3,29.8,11111222
BP,ioos:station:wmo:42880:2,2022-07-01T08:07:00Z,0.0000,0.0000,9.4,29.8,11111222
BP,ioos:station:wmo:42880:2,2022-07-01T08:17:00Z,0.0000,0.0000,9.3,29.8,11111222
BP,ioos:station:wmo:42880:2,2022-07-01T08:27:00Z,0.0000,0.0000,9.3,29.8,11111222
BP,ioos:station:wmo:42880:2,2022-07-01T08:37:00Z,0.0000,0.0000,9.4,29.9,11111222
BP,ioos:station:wmo:42880:2,2022-07-01T08:47:00Z,0.0000,0.0000,9.3,29.8,11111222
BP,ioos:station:wmo:42880:2,2022-07-01T08:57:00Z,0.0000,0.0000,9.3,29.8,11111222
BP,ioos:station:wmo:42880:2,2022-07-01T09:07:00Z,0.0000,0.0000,9.3,29.8,11111222
BP,ioos:station:wmo:42880:2,2022-07-01T09:17:00Z,0.0000,0.0000,9.3,29.8,11111222
BP,ioos:station:wmo:42880:2,2022-07-01T09:27:00Z,0.0000,0.0000,9.3,29.8,11111222
BP,ioos:station:wmo:42880:2,2022-07-01T09:37:00Z,0.0000,0.0000,9.3,29.8,11111222
BP,ioos:station:wmo:42880:2,2022-07-01T09:47:00Z,0.0000,0.0000,9.3,29.8,11111222
BP,ioos:station:wmo:42880:2,2022-07-01T09:57:00Z,0.0000,0.0000,9.3,29.9,11111222
BP,ioos:station:wmo:42880:2,2022-07-01T10:07:00Z,0.0000,0.0000,9.4,29.8,11111222
BP,ioos:station:wmo:42880:2,2022-07-01T10:17:00Z,0.0000,0.0000,9.4,29.7,11111222
BP,ioos:station:wmo:42880:2,2022-07-01T10:27:00Z,0.0000,0.0000,9.4,29.7,11111222
BP,ioos:station:wmo:42880:2,2022-07-01T10:37:00Z,0.0000,0.0000,9.5,29.8,11111222
BP,ioos:station:wmo:42880:2,2022-07-01T10:47:00Z,0.0000,0.0000,9.5,29.7,11111222
BP,ioos:station:wmo:42880:2,2022-07-01T10:57:00Z,0.0000,0.0000,9.5,29.7,11111222
BP,ioos:station:wmo:42880:2,2022-07-01T11:07:00Z,0.0000,0.0000,9.5,29.8,11111222
BP,ioos:station:wmo:42880:2,2022-07-01T11:17:00Z,0.0000,0.0000,9.5,29.7,11111222
BP,ioos:station:wmo:42880:2,2022-07-01T11:27:00Z,0.0000,0.0000,9.5,29.9,11111222
BP,ioos:station:wmo:42880:2,2022-07-01T11:37:00Z,0.0000,0.0000,9.5,29.9,11111222
BP,ioos:station:wmo:42880:2,2022-07-01T11:47:00Z,0.0000,0.0000,9.4,29.9,11111222
BP,ioos:station:wmo:42880:2,2022-07-01T11:57:00Z,0.0000,0.0000,9.5,29.8,11111222
BP,ioos:station:wmo:42880:2,2022-07-01T12:07:00Z,0.0000,0.0000,9.5,29.9,11111222
BP,ioos:station:wmo:42880:2,2022-07-01T12:17:00Z,0.0000,0.0000,9.5,29.9,11111222
BP,ioos:station:wmo:42880:2,2022-07-01T12:27:00Z,0.0000,0.0000,9.5,29.9,11111222
BP,ioos:station:wmo:42880:2,2022-07-01T12:37:00Z,0.0000,0.0000,9.5,29.9,11111222
BP,ioos:station:wmo:42880:2,2022-07-01T12:47:00Z,0.0000,0.0000,9.5,29.8,11111222
BP,ioos:station:wmo:42880:2,2022-07-01T12:57:00Z,0.0000,0.0000,9.5,29.8,11111222
BP,ioos:station:wmo:42880:2,2022-07-01T13:07:00Z,0.0000,0.0000,9.5,29.7,11111222
BP,ioos:station:wmo:42880:2,2022-07-01T13:17:00Z,0.0000,0.0000,9.5,29.7,11111222
BP,ioos:station:wmo:42880:2,2022-07-01T13:27:00Z,0.0000,0.0000,9.5,29.7,11111222
BP,ioos:station:wmo:42880:2,2022-07-01T13:37:00Z,0.0000,0.0000,9.5,29.8,11111222
BP,ioos:station:wmo:42880:2,2022-07-01T13:47:00Z,0.0000,0.0000,9.5,29.7,11111222
BP,ioos:station:wmo:42880:2,2022-07-01T13:57:00Z,0.0000,0.0000,9.5,29.8,11111222
BP,ioos:station:wmo:42880:2,2022-07-01T14:07:00Z,0.0000,0.0000,9.5,29.7,11111222
BP,ioos:station:wmo:42880:2,2022-07-01T14:17:00Z,0.0000,0.0000,9.5,29.8,11111222
BP,ioos:station:wmo:42880:2,2022-07-01T14:27:00Z,0.0000,0.0000,9.5,29.7,11111222
BP,ioos:station:wmo:42880:2,2022-07-01T14:37:00Z,0.0000,0.0000,9.5,29.7,11111222
BP,ioos:station:wmo:42880:2,2022-07-01T14:47:00Z,0.0000,0.0000,9.5,29.7,11111222
BP,ioos:station:wmo:42880:2,2022-07-01T14:57:00Z,0.0000,0.0000,9.5,29.7,11111222
BP,ioos:station:wmo:42880:2,2022-07-01T15:07:00Z,0.0000,0.0000,9.5,29.7,11111222
BP,ioos:station:wmo:42880:2,2022-07-01T15:17:00Z,0.0000,0.0000,9.5,29.7,11111222
BP,ioos:station:wmo:42880:2,2022-07-01T15:27:00Z,0.0000,0.0000,9.5,29.8,11111222
BP,ioos:station:wmo:42880:2,2022-07-01T15:37:00Z,0.0000,0.0000,9.5,29.9,11111222
BP,ioos:station:wmo:42880:2,2022-07-01T15:47:00Z,0.0000,0.0000,9.5,29.9,11111222
BP,ioos:station:wmo:42880:2,2022-07-01T15:57:00Z,0.0000,0.0000,9.5,29.8,11111222
BP,ioos:station:wmo:42880:2,2022-07-01T16:07:00Z,0.0000,0.0000,9.5,29.9,11111222
BP,ioos:station:wmo:42880:2,2022-07-01T16:17:00Z,0.0000,0.0000,9.6,30.0,11111222
BP,ioos:station:wmo:42880:2,2022-07-01T16:27:00Z,0.0000,0.0000,9.6,29.9,11111222
BP,ioos:station:wmo:42880:2,2022-07-01T16:37:00Z,0.0000,0.0000,9.6,30.0,11111222
BP,ioos:station:wmo:42880:2,2022-07-01T16:47:00Z,0.0000,0.0000,9.6,30.0,11111222
BP,ioos:station:wmo:42880:2,2022-07-01T16:57:00Z,0.0000,0.0000,9.6,30.0,11111222
BP,ioos:station:wmo:42880:2,2022-07-01T17:07:00Z,0.0000,0.0000,9.6,29.9,11111222
BP,ioos:station:wmo:42880:2,2022-07-01T17:17:00Z,0.0000,0.0000,9.5,30.0,11111222
BP,ioos:station:wmo:42880:2,2022-07-01T17:27:00Z,0.0000,0.0000,9.5,30.1,11111222
BP,ioos:station:wmo:42880:2,2022-07-01T17:37:00Z,0.0000,0.0000,9.5,30.0,11111222
BP,ioos:station:wmo:42880:2,2022-07-01T18:46:00Z,0.0000,0.0000,9.4,29.9,11111222
BP,ioos:station:wmo:42880:2,2022-07-01T19:06:00Z,0.0000,0.0000,9.4,30.0,11111222
BP,ioos:station:wmo:42880:2,2022-07-01T19:16:00Z,0.0000,0.0000,9.5,29.9,11111222
BP,ioos:station:wmo:42880:2,2022-07-01T19:26:00Z,0.0000,0.0000,9.5,29.9,11111222
BP,ioos:station:wmo:42880:2,2022-07-01T19:36:00Z,0.0000,0.0000,9.5,30.0,11111222
BP,ioos:station:wmo:42880:2,2022-07-01T19:46:00Z,0.0000,0.0000,9.4,29.8,11111222
BP,ioos:station:wmo:42880:2,2022-07-01T19:56:00Z,0.0000,0.0000,9.6,30.0,11111222
BP,ioos:station:wmo:42880:2,2022-07-01T20:06:00Z,0.0000,0.0000,9.6,30.1,11111222
BP,ioos:station:wmo:42880:2,2022-07-01T20:16:00Z,0.0000,0.0000,9.6,30.1,11111222
BP,ioos:station:wmo:42880:2,2022-07-01T20:26:00Z,0.0000,0.0000,9.6,30.0,11111222
BP,ioos:station:wmo:42880:2,2022-07-01T20:36:00Z,0.0000,0.0000,9.6,29.9,11111222
BP,ioos:station:wmo:42880:2,2022-07-01T20:46:00Z,0.0000,0.0000,9.6,30.0,11111222
BP,ioos:station:wmo:42880:2,2022-07-01T20:56:00Z,0.0000,0.0000,9.5,30.1,11111222
BP,ioos:station:wmo:42880:2,2022-07-01T21:06:00Z,0.0000,0.0000,9.6,30.1,11111222
BP,ioos:station:wmo:42880:2,2022-07-01T21:16:00Z,0.0000,0.0000,9.6,30.1,11111222
BP,ioos:station:wmo:42880:2,2022-07-01T21:26:00Z,0.0000,0.0000,9.6,30.1,11111222
BP,ioos:station:wmo:42880:2,2022-07-01T21:36:00Z,0.0000,0.0000,9.6,30.1,11111222
BP,ioos:station:wmo:42880:2,2022-07-01T21:46:00Z,0.0000,0.0000,9.6,30.1,11111222
BP,ioos:station:wmo:42880:2,2022-07-01T21:56:00Z,0.0000,0.0000,9.6,30.3,11111222
BP,ioos:station:wmo:42880:2,2022-07-01T22:06:00Z,0.0000,0.0000,9.6,30.3,11111222
BP,ioos:station:wmo:42880:2,2022-07-01T22:16:00Z,0.0000,0.0000,9.7,30.4,11111222
BP,ioos:station:wmo:42880:2,2022-07-01T22:26:00Z,0.0000,0.0000,9.6,30.4,11111222
BP,ioos:station:wmo:42880:2,2022-07-01T22:36:00Z,0.0000,0.0000,9.6,30.4,11111222
BP,ioos:station:wmo:42880:2,2022-07-01T22:46:00Z,0.0000,0.0000,9.6,30.5,11111222
BP,ioos:station:wmo:42880:2,2022-07-01T22:56:00Z,0.0000,0.0000,9.6,30.5,11111222
BP,ioos:station:wmo:42880:2,2022-07-01T23:06:00Z,0.0000,0.0000,9.5,30.1,11111222
BP,ioos:station:wmo:42880:2,2022-07-01T23:16:00Z,0.0000,0.0000,9.5,30.2,11111222
BP,ioos:station:wmo:42880:2,2022-07-01T23:26:00Z,0.0000,0.0000,9.5,30.1,11111222
BP,ioos:station:wmo:42880:2,2022-07-01T23:36:00Z,0.0000,0.0000,9.5,30.0,11111222
BP,ioos:station:wmo:42880:2,2022-07-01T23:46:00Z,0.0000,0.0000,9.5,30.1,11111222
BP,ioos:station:wmo:42880:2,2022-07-01T23:56:00Z,0.0000,0.0000,9.5,30.1,11111222
BP,ioos:station:wmo:42880:2,2022-07-02T00:06:00Z,0.0000,0.0000,9.5,30.1,11111222
BP,ioos:station:wmo:42880:2,2022-07-02T00:16:00Z,0.0000,0.0000,9.5,30.1,11111222
BP,ioos:station:wmo:42880:2,2022-07-02T00:26:00Z,0.0000,0.0000,9.6,30.2,11111222
BP,ioos:station:wmo:42880:2,2022-07-02T00:36:00Z,0.0000,0.0000,9.5,30.2,11111222
BP,ioos:station:wmo:42880:2,2022-07-02T00:46:00Z,0.0000,0.0000,9.5,30.1,11111222
BP,ioos:station:wmo:42880:2,2022-07-02T00:56:00Z,0.0000,0.0000,9.5,30.1,11111222
BP,ioos:station:wmo:42880:2,2022-07-02T01:06:00Z,0.0000,0.0000,9.5,30.1,11111222
BP,ioos:station:wmo:42880:2,2022-07-02T01:16:00Z,0.0000,0.0000,9.6,30.2,11111222
BP,ioos:station:wmo:42880:2,2022-07-02T01:26:00Z,0.0000,0.0000,9.7,30.2,11111222
BP,ioos:station:wmo:42880:2,2022-07-02T01:36:00Z,0.0000,0.0000,9.7,30.2,11111222
BP,ioos:station:wmo:42880:2,2022-07-02T01:46:00Z,0.0000,0.0000,9.7,30.2,11111222
BP,ioos:station:wmo:42880:2,2022-07-02T01:56:00Z,0.0000,0.0000,9.7,30.2,11111222
BP,ioos:station:wmo:42880:2,2022-07-02T02:06:00Z,0.0000,0.0000,9.7,30.2,11111222
BP,ioos:station:wmo:42880:2,2022-07-02T02:16:00Z,0.0000,0.0000,9.7,30.2,11111222
BP,ioos:station:wmo:42880:2,2022-07-02T02:26:00Z,0.0000,0.0000,9.6,30.2,11111222
BP,ioos:station:wmo:42880:2,2022-07-02T02:36:00Z,0.0000,0.0000,9.6,30.2,11111222
BP,ioos:station:wmo:42880:2,2022-07-02T02:46:00Z,0.0000,0.0000,9.6,30.2,11111222
BP,ioos:station:wmo:42880:2,2022-07-02T02:56:00Z,0.0000,0.0000,9.6,30.1,11111222
BP,ioos:station:wmo:42880:2,2022-07-02T03:06:00Z,0.0000,0.0000,9.6,30.1,11111222
BP,ioos:station:wmo:42880:2,2022-07-02T03:16:00Z,0.0000,0.0000,9.6,30.1,11111222
BP,ioos:station:wmo:42880:2,2022-07-02T03:26:00Z,0.0000,0.0000,9.5,30.1,11111222
BP,ioos:station:wmo:42880:2,2022-07-02T03:36:00Z,0.0000,0.0000,9.6,30.1,11111222
BP,ioos:station:wmo:42880:2,2022-07-02T03:46:00Z,0.0000,0.0000,9.5,30.0,11111222
BP,ioos:station:wmo:42880:2,2022-07-02T03:56:00Z,0.0000,0.0000,9.6,30.1,11111222
BP,ioos:station:wmo:42880:2,2022-07-02T04:06:00Z,0.0000,0.0000,9.6,30.1,11111222
BP,ioos:station:wmo:42880:2,2022-07-02T04:16:00Z,0.0000,0.0000,9.6,30.2,11111222
BP,ioos:station:wmo:42880:2,2022-07-02T04:26:00Z,0.0000,0.0000,9.6,30.2,11111222
BP,ioos:station:wmo:42880:2,2022-07-02T04:36:00Z,0.0000,0.0000,9.6,30.2,11111222
BP,ioos:station:wmo:42880:2,2022-07-02T04:46:00Z,0.0000,0.0000,9.6,30.1,11111222
BP,ioos:station:wmo:42880:2,2022-07-02T04:56:00Z,0.0000,0.0000,9.6,30.1,11111222
BP,ioos:station:wmo:42880:2,2022-07-02T05:06:00Z,0.0000,0.0000,9.6,30.1,11111222
BP,ioos:station:wmo:42880:2,2022-07-02T05:16:00Z,0.0000,0.0000,9.6,30.2,11111222
BP,ioos:station:wmo:42880:2,2022-07-02T05:26:00Z,0.0000,0.0000,9.6,30.2,11111222
BP,ioos:station:wmo:42880:2,2022-07-02T05:36:00Z,0.0000,0.0000,9.6,30.2,11111222
BP,ioos:station:wmo:42880:2,2022-07-02T05:46:00Z,0.0000,0.0000,9.6,30.1,11111222
BP,ioos:station:wmo:42880:2,2022-07-02T05:56:00Z,0.0000,0.0000,9.6,30.1,11111222
BP,ioos:station:wmo:42880:2,2022-07-02T06:06:00Z,0.0000,0.0000,9.6,30.1,11111222
BP,ioos:station:wmo:42880:2,2022-07-02T06:16:00Z,0.0000,0.0000,9.6,30.1,11111222
BP,ioos:station:wmo:42880:2,2022-07-02T06:26:00Z,0.0000,0.0000,9.6,30.1,11111222
BP,ioos:station:wmo:42880:2,2022-07-02T06:36:00Z,0.0000,0.0000,9.6,30.1,11111222
BP,ioos:station:wmo:42880:2,2022-07-02T06:46:00Z,0.0000,0.0000,9.6,30.1,11111222
BP,ioos:station:wmo:42880:2,2022-07-02T06:56:00Z,0.0000,0.0000,9.6,30.1,11111222
BP,ioos:station:wmo:42880:2,2022-07-02T07:06:00Z,0.0000,0.0000,9.6,30.1,11111222
BP,ioos:station:wmo:42880:2,2022-07-02T07:16:00Z,0.0000,0.0000,9.6,30.2,11111222
BP,ioos:station:wmo:42880:2,2022-07-02T07:26:00Z,0.0000,0.0000,9.6,30.1,11111222
BP,ioos:station:wmo:42880:2,2022-07-02T07:36:00Z,0.0000,0.0000,9.6,30.1,11111222
BP,ioos:station:wmo:42880:2,2022-07-02T07:46:00Z,0.0000,0.0000,9.6,30.2,11111222
BP,ioos:station:wmo:42880:2,2022-07-02T07:56:00Z,0.0000,0.0000,9.6,30.2,11111222
BP,ioos:station:wmo:42880:2,2022-07-02T08:06:00Z,0.0000,0.0000,9.6,30.1,11111222
BP,ioos:station:wmo:42880:2,2022-07-02T08:16:00Z,0.0000,0.0000,9.6,30.2,11111222
BP,ioos:station:wmo:42880:2,2022-07-02T08:26:00Z,0.0000,0.0000,9.6,30.2,11111222
BP,ioos:station:wmo:42880:2,2022-07-02T08:36:00Z,0.0000,0.0000,9.6,30.2,11111222
BP,ioos:station:wmo:42880:2,2022-07-02T08:46:00Z,0.0000,0.0000,9.6,30.2,11111222
BP,ioos:station:wmo:42880:2,2022-07-02T08:56:00Z,0.0000,0.0000,9.6,30.2,11111222
BP,ioos:station:wmo:42880:2,2022-07-02T09:06:00Z,0.0000,0.0000,9.6,30.1,11111222
BP,ioos:station:wmo:42880:2,2022-07-02T09:16:00Z,0.0000,0.0000,9.6,30.2,11111222
BP,ioos:station:wmo:42880:2,2022-07-02T09:26:00Z,0.0000,0.0000,9.6,30.2,11111222
BP,ioos:station:wmo:42880:2,2022-07-02T09:36:00Z,0.0000,0.0000,9.6,30.2,11111222
BP,ioos:station:wmo:42880:2,2022-07-02T09:46:00Z,0.0000,0.0000,9.6,30.2,11111222
BP,ioos:station:wmo:42880:2,2022-07-02T09:56:00Z,0.0000,0.0000,9.6,30.2,11111222
BP,ioos:station:wmo:42880:2,2022-07-02T10:06:00Z,0.0000,0.0000,9.6,30.1,11111222
BP,ioos:station:wmo:42880:2,2022-07-02T10:16:00Z,0.0000,0.0000,9.6,30.2,11111222
BP,ioos:station:wmo:42880:2,2022-07-02T10:26:00Z,0.0000,0.0000,9.6,30.1,11111222
BP,ioos:station:wmo:42880:2,2022-07-02T10:36:00Z,0.0000,0.0000,9.6,30.1,11111222
BP,ioos:station:wmo:42880:2,2022-07-02T10:46:00Z,0.0000,0.0000,9.6,30.1,11111222
BP,ioos:station:wmo:42880:2,2022-07-02T10:56:00Z,0.0000,0.0000,9.5,30.0,11111222
BP,ioos:station:wmo:42880:2,2022-07-02T11:06:00Z,0.0000,0.0000,9.5,30.0,11111222
BP,ioos:station:wmo:42880:2,2022-07-02T11:16:00Z,0.0000,0.0000,9.6,29.9,11111222
BP,ioos:station:wmo:42880:2,2022-07-02T11:26:00Z,0.0000,0.0000,9.6,29.7,11111222
BP,ioos:station:wmo:42880:2,2022-07-02T11:36:00Z,0.0000,0.0000,9.6,29.9,11111222
BP,ioos:station:wmo:42880:2,2022-07-02T11:46:00Z,0.0000,0.0000,9.6,29.9,11111222
BP,ioos:station:wmo:42880:2,2022-07-02T11:56:00Z,0.0000,0.0000,9.6,29.9,11111222
BP,ioos:station:wmo:42880:2,2022-07-02T12:06:00Z,0.0000,0.0000,9.6,29.8,11111222
BP,ioos:station:wmo:42880:2,2022-07-02T12:16:00Z,0.0000,0.0000,9.5,29.6,11111222
BP,ioos:station:wmo:42880:2,2022-07-02T12:26:00Z,0.0000,0.0000,9.6,29.7,11111222
BP,ioos:station:wmo:42880:2,2022-07-02T12:36:00Z,0.0000,0.0000,9.6,29.9,11111222
BP,ioos:station:wmo:42880:2,2022-07-02T12:46:00Z,0.0000,0.0000,9.6,30.0,11111222
BP,ioos:station:wmo:42880:2,2022-07-02T12:56:00Z,0.0000,0.0000,9.7,30.0,11111222
BP,ioos:station:wmo:42880:2,2022-07-02T13:06:00Z,0.0000,0.0000,9.7,30.0,11111222
BP,ioos:station:wmo:42880:2,2022-07-02T13:16:00Z,0.0000,0.0000,9.6,30.0,11111222
BP,ioos:station:wmo:42880:2,2022-07-02T13:26:00Z,0.0000,0.0000,9.6,30.0,11111222
BP,ioos:station:wmo:42880:2,2022-07-02T13:36:00Z,0.0000,0.0000,9.6,30.0,11111222
BP,ioos:station:wmo:42880:2,2022-07-02T13:46:00Z,0.0000,0.0000,9.7,30.0,11111222
BP,ioos:station:wmo:42880:2,2022-07-02T13:56:00Z,0.0000,0.0000,9.6,30.1,11111222
BP,ioos:station:wmo:42880:2,2022-07-02T14:06:00Z,0.0000,0.0000,9.6,30.1,11111222
BP,ioos:station:wmo:42880:2,2022-07-02T14:16:00Z,0.0000,0.0000,9.6,30.1,11111222
BP,ioos:station:wmo:42880:2,2022-07-02T14:26:00Z,0.0000,0.0000,9.6,30.1,11111222
BP,ioos:station:wmo:42880:2,2022-07-02T14:36:00Z,0.0000,0.0000,9.6,30.1,11111222
BP,ioos:station:wmo:42880:2,2022-07-02T14:46:00Z,0.0000,0.0000,9.6,30.1,11111222
BP,ioos:station:wmo:42880:2,2022-07-02T14:56:00Z,0.0000,0.0000,9.6,30.1,11111222
BP,ioos:station:wmo:42880:2,2022-07-02T15:06:00Z,0.0000,0.0000,9.6,30.1,11111222
BP,ioos:station:wmo:42880:2,2022-07-02T15:16:00Z,0.0000,0.0000,9.5,30.1,11111222
BP,ioos:station:wmo:42880:2,2022-07-02T15:26:00Z,0.0000,0.0000,9.5,30.1,11111222
BP,ioos:station:wmo:42880:2,2022-07-02T15:36:00Z,0.0000,0.0000,9.5,30.2,11111222
BP,ioos:station:wmo:42880:2,2022-07-02T15:46:00Z,0.0000,0.0000,9.5,30.2,11111222
BP,ioos:station:wmo:42880:2,2022-07-02T15:56:00Z,0.0000,0.0000,9.5,30.2,11111222
BP,ioos:station:wmo:42880:2,2022-07-02T16:06:00Z,0.0000,0.0000,9.5,30.2,11111222
BP,ioos:station:wmo:42880:2,2022-07-02T16:16:00Z,0.0000,0.0000,9.5,30.2,11111222
BP,ioos:station:wmo:42880:2,2022-07-02T16:26:00Z,0.0000,0.0000,9.5,30.1,11111222
BP,ioos:station:wmo:42880:2,2022-07-02T16:36:00Z,0.0000,0.0000,9.5,30.1,11111222
BP,ioos:station:wmo:42880:2,2022-07-02T16:46:00Z,0.0000,0.0000,9.5,30.1,11111222
BP,ioos:station:wmo:42880:2,2022-07-02T16:56:00Z,0.0000,0.0000,9.5,30.1,11111222
BP,ioos:station:wmo:42880:2,2022-07-02T17:06:00Z,0.0000,0.0000,9.5,30.1,11111222
BP,ioos:station:wmo:42880:2,2022-07-02T17:16:00Z,0.0000,0.0000,9.5,30.1,11111222
BP,ioos:station:wmo:42880:2,2022-07-02T17:26:00Z,0.0000,0.0000,9.5,30.1,11111222
BP,ioos:station:wmo:42880:2,2022-07-02T17:36:00Z,0.0000,0.0000,9.5,30.2,11111222
BP,ioos:station:wmo:42880:2,2022-07-02T17:46:00Z,0.0000,0.0000,9.5,30.2,11111222
BP,ioos:station:wmo:42880:2,2022-07-02T17:56:00Z,0.0000,0.0000,9.5,30.2,11111222
BP,ioos:station:wmo:42880:2,2022-07-02T18:06:00Z,0.0000,0.0000,9.5,30.3,11111222
BP,ioos:station:wmo:42880:2,2022-07-02T18:16:00Z,0.0000,0.0000,9.5,30.4,11111222
BP,ioos:station:wmo:42880:2,2022-07-02T18:26:00Z,0.0000,0.0000,9.5,30.2,11111222
BP,ioos:station:wmo:42880:2,2022-07-02T18:36:00Z,0.0000,0.0000,9.5,30.2,11111222
BP,ioos:station:wmo:42880:2,2022-07-02T18:46:00Z,0.0000,0.0000,9.5,30.1,11111222
BP,ioos:station:wmo:42880:2,2022-07-02T18:56:00Z,0.0000,0.0000,9.5,30.2,11111222
BP,ioos:station:wmo:42880:2,2022-07-02T19:06:00Z,0.0000,0.0000,9.5,30.2,11111222
BP,ioos:station:wmo:42880:2,2022-07-02T19:16:00Z,0.0000,0.0000,9.4,30.1,11111222
BP,ioos:station:wmo:42880:2,2022-07-02T19:26:00Z,0.0000,0.0000,9.4,30.1,11111222
BP,ioos:station:wmo:42880:2,2022-07-02T19:36:00Z,0.0000,0.0000,9.4,30.1,11111222
BP,ioos:station:wmo:42880:2,2022-07-02T19:46:00Z,0.0000,0.0000,9.5,30.2,11111222
BP,ioos:station:wmo:42880:2,2022-07-02T19:56:00Z,0.0000,0.0000,9.5,30.4,11111222
BP,ioos:station:wmo:42880:2,2022-07-02T20:06:00Z,0.0000,0.0000,9.5,30.4,11111222
BP,ioos:station:wmo:42880:2,2022-07-02T20:16:00Z,0.0000,0.0000,9.4,30.4,11111222
BP,ioos:station:wmo:42880:2,2022-07-02T20:26:00Z,0.0000,0.0000,9.4,30.4,11111222
BP,ioos:station:wmo:42880:2,2022-07-02T20:36:00Z,0.0000,0.0000,9.5,30.4,11111222
BP,ioos:station:wmo:42880:2,2022-07-02T20:46:00Z,0.0000,0.0000,9.5,30.5,11111222
BP,ioos:station:wmo:42880:2,2022-07-02T20:56:00Z,0.0000,0.0000,9.5,30.4,11111222
BP,ioos:station:wmo:42880:2,2022-07-02T21:06:00Z,0.0000,0.0000,9.5,30.4,11111222
BP,ioos:station:wmo:42880:2,2022-07-02T21:16:00Z,0.0000,0.0000,9.5,30.4,11111222
BP,ioos:station:wmo:42880:2,2022-07-02T21:26:00Z,0.0000,0.0000,9.5,30.3,11111222
BP,ioos:station:wmo:42880:2,2022-07-02T21:36:00Z,0.0000,0.0000,9.5,30.1,11111222
BP,ioos:station:wmo:42880:2,2022-07-02T21:46:00Z,0.0000,0.0000,9.5,30.0,11111222
BP,ioos:station:wmo:42880:2,2022-07-02T21:56:00Z,0.0000,0.0000,9.5,30.0,11111222
BP,ioos:station:wmo:42880:2,2022-07-02T22:06:00Z,0.0000,0.0000,9.5,30.0,11111222
BP,ioos:station:wmo:42880:2,2022-07-02T22:16:00Z,0.0000,0.0000,9.4,29.9,11111222
BP,ioos:station:wmo:42880:2,2022-07-02T22:26:00Z,0.0000,0.0000,9.4,29.9,11111222
BP,ioos:station:wmo:42880:2,2022-07-02T22:36:00Z,0.0000,0.0000,9.4,29.8,11111222
BP,ioos:station:wmo:42880:2,2022-07-02T22:46:00Z,0.0000,0.0000,9.4,29.9,11111222
BP,ioos:station:wmo:42880:2,2022-07-02T22:56:00Z,0.0000,0.0000,9.4,29.8,11111222
BP,ioos:station:wmo:42880:2,2022-07-02T23:06:00Z,0.0000,0.0000,9.4,29.8,11111222
BP,ioos:station:wmo:42880:2,2022-07-02T23:16:00Z,0.0000,0.0000,9.4,29.8,11111222
BP,ioos:station:wmo:42880:2,2022-07-02T23:26:00Z,0.0000,0.0000,9.4,29.6,11111222
BP,ioos:station:wmo:42880:2,2022-07-02T23:36:00Z,0.0000,0.0000,9.4,29.6,11111222
BP,ioos:station:wmo:42880:2,2022-07-02T23:46:00Z,0.0000,0.0000,9.4,29.6,11111222
BP,ioos:station:wmo:42880:2,2022-07-02T23:56:00Z,0.0000,0.0000,9.4,29.6,11111222
BP,ioos:station:wmo:42880:2,2022-07-03T00:06:00Z,0.0000,0.0000,9.5,29.6,11111222
BP,ioos:station:wmo:42880:2,2022-07-03T00:16:00Z,0.0000,0.0000,9.5,29.7,11111222
BP,ioos:station:wmo:42880:2,2022-07-03T00:26:00Z,0.0000,0.0000,9.4,29.7,11111222
BP,ioos:station:wmo:42880:2,2022-07-03T00:36:00Z,0.0000,0.0000,9.5,29.6,11111222
BP,ioos:station:wmo:42880:2,2022-07-03T00:46:00Z,0.0000,0.0000,9.5,29.8,11111222
BP,ioos:station:wmo:42880:2,2022-07-03T00:56:00Z,0.0000,0.0000,9.4,29.6,11111222
BP,ioos:station:wmo:42880:2,2022-07-03T01:06:00Z,0.0000,0.0000,9.4,29.6,11111222
BP,ioos:station:wmo:42880:2,2022-07-03T01:16:00Z,0.0000,0.0000,9.5,30.0,11111222
BP,ioos:station:wmo:42880:2,2022-07-03T01:26:00Z,0.0000,0.0000,9.5,30.1,11111222
BP,ioos:station:wmo:42880:2,2022-07-03T01:36:00Z,0.0000,0.0000,9.5,30.0,11111222